Regional Weather Roundup
Issued by NWS

Home | Current Version | Previous Version | Graphics & Text | Print | Product List | Glossary On
Versions: 1 2 3 4 5 6 7 8 9 10 11 12 13 14 15 16 17 18 19 20 21 22 23 24 25 26 27 28 29 30 31 32 33 34 35 36 37 38 39 40 41 42 43 44 45 46 47 48 49 50
000
ASUS43 KIND 311109
RWRIN

WEATHER ROUNDUP FOR INDIANA
NATIONAL WEATHER SERVICE INDIANAPOLIS IN
700 AM EDT FRI OCT 31 2014

NOTE: "FAIR" INDICATES FEW OR NO CLOUDS BELOW 12,000 FEET WITH NO
SIGNIFICANT WEATHER AND/OR OBSTRUCTIONS TO VISIBILITY.

* - STATION DOES NOT REPORT WEATHER SUCH AS PRECIPITATION OR FOG.

+ - STATION NOT QUALITY CONTROLLED BY THE NATIONAL WEATHER SERVICE.
    USE DATA WITH CAUTION...ESPECIALLY DEWPOINT AND RELATIVE
    HUMIDITY OBSERVATIONS.

INZ001>003-010>013-019-020-311200-
NORTHWEST INDIANA

CITY           SKY/WX    TMP DP  RH WIND       PRES   REMARKS
GARY /AIRPORT/ DRIZZLE   43  34  70 NW20G33   30.04R
KNOX *+        CLOUDY    42  38  86 N17       29.99R
LA PORTE +     LGT RAIN  41  39  91 NW14G21   30.00R
MICHIGAN CITY+ LGT RAIN  41  34  75 N10       30.01S
MONTICELLO +   LGT RAIN  43  40  89 NW9       29.99R
RENSSELAER +   LGT RAIN  43  41  93 NW12G24   30.02R
VALPARAISO     LGT RAIN  40  38  93 NW16G22   30.01R FOG

$$

LMZ046-743>745-311200-
SOUTHERN LAKE MICHIGAN

STATION/POSITION TIME  TEMP WIND        PRES
                       AIR  DIR/SP/G
                 (UTC) (F)  (DEG/KT/KT) (MB)
MICHIGAN CITY    1100   43  310/ 25/ 32   N/A

$$

INZ004-005-014>016-021>024-311200-
NORTH CENTRAL INDIANA

CITY           SKY/WX    TMP DP  RH WIND       PRES   REMARKS
ELKHART        LGT RAIN  41  37  87 NW13G22   29.97
GOSHEN         LGT RAIN  43  41  93 NW17G23   29.94S
LOGANSPORT +   CLOUDY    43  37  81 NW5       29.98S
PERU/GRISSOM   CLOUDY    42  42 100 W8        29.97S
ROCHESTER +    LGT RAIN  45  41  87 NW16      29.97S
SOUTH BEND     LGT RAIN  42  37  82 NW16      29.98R
WARSAW +       RAIN      43  39  87 W10       29.95S

$$

INZ006>009-017-018-025>027-311200-
NORTHEAST INDIANA

CITY           SKY/WX    TMP DP  RH WIND       PRES   REMARKS
ANGOLA *+        N/A     43  39  87 W6        29.92S
AUBURN +       LGT RAIN  43  36  75 W5        29.93F
FORT WAYNE     LGT RAIN  43  38  82 SW7       29.95F
HUNTINGTON +   DRIZZLE  N/A N/A N/A W5        29.95S

$$

INZ028-029-035-036-043>045-051>053-311200-
WEST CENTRAL INDIANA

CITY           SKY/WX    TMP DP  RH WIND       PRES   REMARKS
GREENCASTLE +  CLOUDY    43  37  81 CALM      30.01S
LAFAYETTE      CLOUDY    44  39  82 NW13      30.00S
TERRE HAUTE    CLOUDY    44  42  93 NW3       30.03S

$$

INZ030>032-037>040-046>048-054>057-064-065-311200-
CENTRAL INDIANA

CITY           SKY/WX    TMP DP  RH WIND       PRES   REMARKS
CP ATTERBURY + CLOUDY    41  37  87 CALM      30.00S
COLUMBUS       CLOUDY    41  39  93 NW5       30.00
FRANKFORT +    CLOUDY    43  40  89 W6        30.01S
GREENWOOD *+   CLOUDY    43  36  75 CALM      30.00
INDIANAPOLIS   CLOUDY    44  38  79 W6        29.98F
-EAGLE CREEK   CLOUDY    45  38  76 W8        29.99S
KOKOMO *+      CLOUDY    43  37  81 W10       29.98S
MARION +       CLOUDY    42  37  82 W6        29.97F
MT COMFORT *+  MOCLDY    43  36  75 W5        29.99S
SHELBYVILLE    CLOUDY    45  39  79 NW6       29.98S
ZIONSVILLE +   CLOUDY    44  36  74 W6        29.99S

$$

INZ033-034-041-042-049-050-058-059-311200-
EAST CENTRAL INDIANA

CITY           SKY/WX    TMP DP  RH WIND       PRES   REMARKS
MUNCIE         CLOUDY    43  37  79 SW3       29.97S

$$

INZ060-061-067>069-081>083-085>088-311200-
SOUTHWEST INDIANA

CITY           SKY/WX    TMP DP  RH WIND       PRES   REMARKS
EVANSVILLE     CLOUDY    48  44  86 N3        30.04R
HUNTINGBURG *+ MOCLDY    46  43  87 NW5       30.03R
WASHINGTON +   CLOUDY    46  46 100 NW6       30.03R

$$

INZ062-063-066-070>080-084-089>092-311200-
SOUTH CENTRAL AND SOUTHEAST INDIANA

CITY           SKY/WX    TMP DP  RH WIND       PRES   REMARKS
BLOOMINGTON    CLOUDY    44  41  89 NW3       30.01S
NORTH VERNON + CLOUDY    45  45 100 CALM      30.00S

$$




USA.gov is the U.S. government's official web portal to all federal, state and local government web resources and services.